| time (UTC) | temp F | wind direction | speed knots | gust knots | rain 1hr in | rain 24hr in | rain mn in | humidity % | barometer mb |
| 20260506124603 | 78 | 0.0 | 0.0 | 0.00 | 0.00 | 0.00 | 35 | 1005.7 | |
| 20260506123603 | 75 | 0.0 | 0.0 | 0.00 | 0.00 | 0.00 | 37 | 1005.8 | |
| 20260506122603 | 78 | 0.0 | 0.0 | 0.00 | 0.00 | 0.00 | 35 | 1006.1 | |
| 20260506121602 | 76 | 0.0 | 0.0 | 0.00 | 0.00 | 0.00 | 37 | 1006.2 | |
| 20260506120602 | 74 | 0.0 | 0.0 | 0.00 | 0.00 | 0.00 | 38 | 1006.3 | |
| 20260506115602 | 74 | 0.0 | 0.0 | 0.00 | 0.00 | 0.00 | 37 | 1006.3 | |
| 20260506114603 | 75 | 0.0 | 0.0 | 0.00 | 0.00 | 0.00 | 37 | 1006.2 | |
| 20260506113603 | 73 | 0.0 | 0.0 | 0.00 | 0.00 | 0.00 | 39 | 1006.4 | |
| 20260506112602 | 71 | 0.0 | 0.0 | 0.00 | 0.00 | 0.00 | 40 | 1006.6 | |
| 20260506111603 | 72 | 0.0 | 0.0 | 0.00 | 0.00 | 0.00 | 39 | 1006.7 | |
| 20260506110603 | 71 | 0.0 | 0.0 | 0.00 | 0.00 | 0.00 | 42 | 1006.8 | |
| 20260506104603 | 69 | 0.0 | 0.0 | 0.00 | 0.00 | 0.00 | 45 | 1006.9 | |
| 20260506103603 | 68 | 0.0 | 0.0 | 0.00 | 0.00 | 0.00 | 48 | 1006.9 | |
| 20260506102603 | 68 | 0.0 | 0.0 | 0.00 | 0.00 | 0.00 | 48 | 1007.0 | |
| 20260506101603 | 67 | 0.0 | 0.0 | 0.00 | 0.00 | 0.00 | 50 | 1006.9 | |
| 20260506100603 | 66 | 0.0 | 0.0 | 0.00 | 0.00 | 0.00 | 50 | 1007.2 | |
| 20260506095603 | 67 | 0.0 | 0.0 | 0.00 | 0.00 | 0.00 | 50 | 1007.0 | |
| 20260506094603 | 68 | 0.0 | 0.0 | 0.00 | 0.00 | 0.00 | 49 | 1007.0 | |
| 20260506093603 | 67 | 0.0 | 0.0 | 0.00 | 0.00 | 0.00 | 50 | 1006.9 | |
| 20260506092603 | 68 | 0.0 | 0.0 | 0.00 | 0.00 | 0.00 | 50 | 1006.9 | |
| 20260506091603 | 67 | 0.0 | 0.0 | 0.00 | 0.00 | 0.00 | 51 | 1007.0 | |
| 20260506090603 | 66 | 0.0 | 0.0 | 0.00 | 0.00 | 0.00 | 52 | 1007.0 | |
| 20260506085603 | 65 | 0.0 | 0.0 | 0.00 | 0.00 | 0.00 | 53 | 1007.0 | |
| 20260506084603 | 65 | 0.0 | 0.0 | 0.00 | 0.00 | 0.00 | 55 | 1007.0 | |
| 20260506083602 | 64 | 0.0 | 0.0 | 0.00 | 0.00 | 0.00 | 57 | 1007.0 | |
| 20260506082603 | 64 | 0.0 | 0.0 | 0.00 | 0.00 | 0.00 | 58 | 1007.0 | |
| 20260506081603 | 64 | 0.0 | 0.0 | 0.00 | 0.00 | 0.00 | 59 | 1007.0 | |
| 20260506080603 | 63 | 0.0 | 0.0 | 0.00 | 0.00 | 0.00 | 60 | 1007.1 | |
| 20260506072603 | 61 | 0.0 | 0.0 | 0.00 | 0.00 | 0.00 | 64 | 1007.0 | |
| 20260506071603 | 62 | 0.0 | 0.0 | 0.00 | 0.00 | 0.00 | 64 | 1006.9 | |
| 20260506070603 | 62 | 0.0 | 0.0 | 0.00 | 0.00 | 0.00 | 65 | 1006.9 | |
| 20260506060602 | 58 | 0.0 | 0.0 | 0.00 | 0.00 | 0.00 | 72 | 1006.7 | |
| 20260506050603 | 57 | 0.0 | 0.0 | 0.00 | 0.00 | 0.00 | 76 | 1007.0 | |
| 20260506044603 | 57 | 0.0 | 0.0 | 0.00 | 0.00 | 0.00 | 76 | 1006.6 | |
| 20260506043603 | 57 | 0.0 | 0.0 | 0.00 | 0.00 | 0.00 | 79 | 1006.6 | |
| 20260506042603 | 56 | 0.0 | 0.0 | 0.00 | 0.00 | 0.00 | 80 | 1006.5 | |
| 20260506041603 | 56 | 0.0 | 0.0 | 0.00 | 0.00 | 0.00 | 80 | 1006.7 | |
| 20260506040603 | 56 | 0.0 | 0.0 | 0.00 | 0.00 | 0.00 | 81 | 1006.5 | |
| 20260506035603 | 56 | 0.0 | 0.0 | 0.00 | 0.00 | 0.00 | 80 | 1006.2 | |
| 20260506034602 | 56 | 0.0 | 0.0 | 0.00 | 0.00 | 0.00 | 80 | 1006.1 | |
| 20260506033603 | 56 | 0.0 | 0.0 | 0.00 | 0.00 | 0.00 | 80 | 1006.1 | |
| 20260506032603 | 56 | 0.0 | 0.0 | 0.00 | 0.00 | 0.00 | 82 | 1006.1 | |
| 20260506031603 | 56 | 0.0 | 0.0 | 0.00 | 0.00 | 0.00 | 83 | 1006.1 | |
| 20260506030603 | 57 | 0.0 | 0.0 | 0.00 | 0.00 | 0.00 | 82 | 1006.2 | |
| 20260506025603 | 57 | 0.0 | 0.0 | 0.00 | 0.00 | 0.00 | 82 | 1006.2 | |
| 20260506024603 | 57 | 0.0 | 0.0 | 0.00 | 0.00 | 0.00 | 83 | 1006.2 | |
| 20260506023603 | 57 | 0.0 | 0.0 | 0.00 | 0.00 | 0.00 | 83 | 1006.3 | |
| 20260506022603 | 57 | 0.0 | 0.0 | 0.00 | 0.00 | 0.00 | 83 | 1006.4 | |
| 20260506021603 | 57 | 0.0 | 0.0 | 0.00 | 0.00 | 0.00 | 85 | 1006.4 | |
| 20260506020602 | 57 | 0.0 | 0.0 | 0.00 | 0.00 | 0.00 | 87 | 1006.3 | |
| 20260506015602 | 57 | 0.0 | 0.0 | 0.00 | 0.00 | 0.00 | 87 | 1006.4 | |
| 20260506014602 | 57 | 0.0 | 0.0 | 0.00 | 0.00 | 0.00 | 88 | 1006.2 | |
| 20260506013602 | 57 | 0.0 | 0.0 | 0.00 | 0.00 | 0.00 | 87 | 1006.2 | |
| 20260506012603 | 58 | 0.0 | 0.0 | 0.00 | 0.00 | 0.00 | 86 | 1006.1 | |
| 20260506011606 | 58 | 0.0 | 0.0 | 0.00 | 0.00 | 0.00 | 85 | 1005.9 | |
| 20260506010601 | 58 | 0.0 | 0.0 | 0.00 | 0.00 | 0.00 | 83 | 1005.9 | |
| 20260506005601 | 59 | 0.0 | 0.0 | 0.00 | 0.00 | 0.00 | 82 | 1005.9 | |
| 20260506004601 | 58 | 0.0 | 0.0 | 0.00 | 0.00 | 0.00 | 84 | 1006.0 | |
| 20260506003601 | 59 | 0.0 | 0.0 | 0.00 | 0.00 | 0.00 | 84 | 1006.0 | |
| 20260506002601 | 58 | 0.0 | 0.0 | 0.00 | 0.00 | 0.00 | 87 | 1006.0 | |
| 20260506001601 | 58 | 0.0 | 0.0 | 0.00 | 0.00 | 0.00 | 87 | 1006.0 | |
| 20260506000601 | 58 | 0.0 | 0.0 | 0.00 | 0.00 | 0.00 | 87 | 1005.8 | |
| 20260505235601 | 59 | 0.0 | 0.0 | 0.00 | 0.00 | 0.00 | 87 | 1005.9 | |
| 20260505234601 | 59 | 0.0 | 0.0 | 0.00 | 0.00 | 0.00 | 85 | 1005.9 | |
| 20260505233601 | 59 | 0.0 | 0.0 | 0.00 | 0.00 | 0.00 | 85 | 1006.0 | |
| 20260505232601 | 59 | 0.0 | 0.0 | 0.00 | 0.00 | 0.00 | 84 | 1006.3 | |
| 20260505231601 | 58 | 0.0 | 0.0 | 0.00 | 0.00 | 0.00 | 85 | 1006.3 | |
| 20260505230601 | 58 | 0.0 | 0.0 | 0.00 | 0.00 | 0.00 | 86 | 1006.2 | |
| 20260505225601 | 58 | 0.0 | 0.0 | 0.00 | 0.00 | 0.00 | 86 | 1006.3 | |
| 20260505224601 | 58 | 0.0 | 0.0 | 0.00 | 0.00 | 0.00 | 86 | 1006.2 | |
| 20260505223601 | 58 | 0.0 | 0.0 | 0.00 | 0.00 | 0.00 | 88 | 1006.3 | |
| 20260505222601 | 58 | 0.0 | 0.0 | 0.00 | 0.00 | 0.00 | 87 | 1006.2 | |
| 20260505221606 | 58 | 0.0 | 0.0 | 0.00 | 0.00 | 0.00 | 87 | 1006.3 | |
| 20260505220601 | 59 | 0.0 | 0.0 | 0.00 | 0.00 | 0.00 | 87 | 1006.4 | |
| 20260505215601 | 59 | 0.0 | 0.0 | 0.00 | 0.00 | 0.00 | 87 | 1006.4 | |
| 20260505214601 | 60 | 0.0 | 0.0 | 0.00 | 0.00 | 0.00 | 88 | 1006.5 | |
| 20260505213601 | 60 | 0.0 | 0.0 | 0.00 | 0.00 | 0.00 | 87 | 1006.5 | |
| 20260505212601 | 61 | 0.0 | 0.0 | 0.00 | 0.00 | 0.00 | 85 | 1006.4 | |
| 20260505211601 | 61 | 0.0 | 0.0 | 0.00 | 0.00 | 0.00 | 82 | 1006.3 | |
| 20260505210601 | 62 | 0.0 | 0.0 | 0.00 | 0.00 | 0.00 | 76 | 1006.4 | |
| 20260505205601 | 63 | 0.0 | 0.0 | 0.00 | 0.00 | 0.00 | 69 | 1006.0 | |
| 20260505204601 | 65 | 0.0 | 0.0 | 0.00 | 0.00 | 0.00 | 63 | 1005.4 | |
| 20260505203601 | 66 | 0.0 | 0.0 | 0.00 | 0.00 | 0.00 | 61 | 1005.0 | |
| 20260505202601 | 67 | 0.0 | 0.0 | 0.00 | 0.00 | 0.00 | 57 | 1004.5 | |
| 20260505201601 | 67 | 0.0 | 0.0 | 0.00 | 0.00 | 0.00 | 51 | 1004.3 | |
| 20260505200601 | 66 | 0.0 | 0.0 | 0.00 | 0.00 | 0.00 | 53 | 1004.2 | |
| 20260505195601 | 67 | 0.0 | 0.0 | 0.00 | 0.00 | 0.00 | 52 | 1003.7 | |
| 20260505194601 | 66 | 0.0 | 0.0 | 0.00 | 0.00 | 0.00 | 53 | 1003.5 | |
| 20260505193601 | 67 | 0.0 | 0.0 | 0.00 | 0.00 | 0.00 | 53 | 1003.3 | |
| 20260505192601 | 67 | 0.0 | 0.0 | 0.00 | 0.00 | 0.00 | 52 | 1003.3 | |
| 20260505191601 | 67 | 0.0 | 0.0 | 0.00 | 0.00 | 0.00 | 52 | 1003.3 | |
| 20260505190601 | 67 | 0.0 | 0.0 | 0.00 | 0.00 | 0.00 | 50 | 1003.5 | |
| 20260505185601 | 68 | 0.0 | 0.0 | 0.00 | 0.00 | 0.00 | 49 | 1003.6 | |
| 20260505184601 | 68 | 0.0 | 0.0 | 0.00 | 0.00 | 0.00 | 46 | 1003.7 | |
| 20260505183601 | 68 | 0.0 | 0.0 | 0.00 | 0.00 | 0.00 | 45 | 1003.6 | |
| 20260505182601 | 68 | 0.0 | 0.0 | 0.00 | 0.00 | 0.00 | 47 | 1003.4 | |
| 20260505181601 | 68 | 0.0 | 0.0 | 0.00 | 0.00 | 0.00 | 47 | 1003.4 | |
| 20260505180601 | 69 | 0.0 | 0.0 | 0.00 | 0.00 | 0.00 | 46 | 1003.4 | |
| 20260505175601 | 69 | 0.0 | 0.0 | 0.00 | 0.00 | 0.00 | 45 | 1003.6 | |
| 20260505174601 | 69 | 0.0 | 0.0 | 0.00 | 0.00 | 0.00 | 45 | 1003.8 | |
| 20260505173601 | 70 | 0.0 | 0.0 | 0.00 | 0.00 | 0.00 | 43 | 1004.0 | |
| 20260505172601 | 70 | 0.0 | 0.0 | 0.00 | 0.00 | 0.00 | 43 | 1004.0 | |
| 20260505171601 | 71 | 0.0 | 0.0 | 0.00 | 0.00 | 0.00 | 43 | 1004.1 | |
| 20260505170601 | 71 | 0.0 | 0.0 | 0.00 | 0.00 | 0.00 | 43 | 1004.2 | |
| 20260505165601 | 70 | 0.0 | 0.0 | 0.00 | 0.00 | 0.00 | 44 | 1004.3 | |
| 20260505164601 | 72 | 0.0 | 0.0 | 0.00 | 0.00 | 0.00 | 42 | 1004.3 | |
| 20260505163601 | 73 | 0.0 | 0.0 | 0.00 | 0.00 | 0.00 | 39 | 1004.2 | |
| 20260505162601 | 77 | 0.0 | 0.0 | 0.00 | 0.00 | 0.00 | 30 | 1003.9 | |
| 20260505161601 | 78 | 0.0 | 0.0 | 0.00 | 0.00 | 0.00 | 29 | 1003.7 | |
| 20260505160601 | 80 | 0.0 | 0.0 | 0.00 | 0.00 | 0.00 | 28 | 1003.7 | |
| 20260505152601 | 80 | 0.0 | 0.0 | 0.00 | 0.00 | 0.00 | 29 | 1004.2 | |
| 20260505151601 | 78 | 0.0 | 0.0 | 0.00 | 0.00 | 0.00 | 30 | 1004.2 | |
| 20260505150601 | 78 | 0.0 | 0.0 | 0.00 | 0.00 | 0.00 | 32 | 1004.3 | |
| 20260505140601 | 80 | 0.0 | 0.0 | 0.00 | 0.00 | 0.00 | 27 | 1004.9 |